Simultaneous Nadir Overpasses (SNOs) Predictions

Prediction of SNOs between AQUA and NPP Satellite Orbit:

Table of predicted SNOs for the next 14.0 days since TLE Epoch: 9/5/2014
Index Date (AQUA) Time (AQUA) Lat,Lon (AQUA) SZA (AQUA ) Date (NPP) Time (NPP) Lat,Lon (NPP) SZA (NPP ) Distance(km) Time Diff (sec)
1 09/08/2014 00:44:36 46.00, 21.29 120.61 09/08/2014 00:43:52 45.99, 21.50 120.61 15.81 44
2 09/08/2014 01:32:55 -50.18,-169.42 63.21 09/08/2014 01:33:27 -50.18,-169.43 63.26 0.88 32
3 09/10/2014 17:01:04 46.01, 137.18 121.41 09/10/2014 17:00:51 45.98, 137.26 121.41 7.13 13
4 09/10/2014 17:48:25 -53.60, -51.99 65.53 09/10/2014 17:49:26 -53.60, -52.01 65.62 1.52 61
5 09/13/2014 08:28:09 -46.03, 85.41 57.82 09/13/2014 08:27:09 -45.97, 85.70 57.79 23.01 60
6 09/13/2014 09:17:11 47.30,-106.46 121.06 09/13/2014 09:17:28 47.30,-106.44 121.02 0.98 17
7 09/13/2014 09:53:07 -79.27,-173.60 103.56 09/13/2014 09:54:20 -78.75,-175.77 103.88 74.30 73
8 09/16/2014 00:44:37 -46.05,-158.70 57.03 09/16/2014 00:44:08 -46.02,-158.52 57.03 14.39 29
9 09/16/2014 01:32:47 50.40, 10.68 119.08 09/16/2014 01:33:34 50.39, 10.66 119.01 1.71 47
10 09/18/2014 17:01:03 -46.16, -42.78 56.32 09/18/2014 17:01:05 -46.17, -42.69 56.38 6.69 2




NCC Satellite Simultaneous Nadir Overpasses (SNOs) Prediction Service
